RCH3512 ENEV-LIPA

Flight info

Callsign RCH3512
Flight time N/A
Altitude 24000
Route AMIMO DCT BAMIP P600 NETAV DCT UMSAK DCT LAPSI DCT NEMBA N33 DEKIK DCT BIKRU DCT RAKIT M725 OBANI Z36 PIKIB DCT SUBEN DCT MALUG DCT ROKIB
Aircraft C130/M-SDE2E3FGRY/H

Departure

Time 2026-04-30 09:33
Airport Harstad/Narvik Airport (ENEV)

Arrival

Time N/A
Airport Aviano Air Base (LIPA)
Time Latitude Longitude Altitude Speed Heading
2026-04-30 09:19 68.49044 16.68395 91 ft 0 kts 356°
2026-04-30 09:25 68.49046 16.68390 91 ft 1 kts 338°
2026-04-30 09:25 68.49054 16.68362 92 ft 3 kts 312°
2026-04-30 09:26 68.49073 16.68316 93 ft 5 kts 325°
2026-04-30 09:26 68.49109 16.68262 93 ft 7 kts 334°
2026-04-30 09:26 68.49163 16.68206 92 ft 10 kts 344°
2026-04-30 09:26 68.49240 16.68179 91 ft 11 kts 357°
2026-04-30 09:27 68.49310 16.68169 92 ft 9 kts 357°
2026-04-30 09:27 68.49370 16.68162 91 ft 8 kts 357°
2026-04-30 09:27 68.49420 16.68156 91 ft 7 kts 357°
2026-04-30 09:27 68.49465 16.68150 92 ft 7 kts 357°
2026-04-30 09:28 68.49514 16.68144 93 ft 7 kts 357°
2026-04-30 09:28 68.49578 16.68135 93 ft 11 kts 357°
2026-04-30 09:28 68.49664 16.68124 92 ft 13 kts 357°
2026-04-30 09:28 68.49762 16.68113 92 ft 15 kts 358°
2026-04-30 09:29 68.49875 16.68102 91 ft 17 kts 358°
2026-04-30 09:29 68.49991 16.68087 93 ft 17 kts 357°
2026-04-30 09:29 68.50091 16.68079 93 ft 12 kts 359°
2026-04-30 09:29 68.50166 16.68074 95 ft 9 kts 358°
2026-04-30 09:30 68.50221 16.68068 93 ft 7 kts 358°
2026-04-30 09:30 68.50270 16.68061 93 ft 8 kts 357°
2026-04-30 09:30 68.50329 16.68045 92 ft 9 kts 348°
2026-04-30 09:30 68.50376 16.67964 92 ft 7 kts 308°
2026-04-30 09:31 68.50383 16.67883 93 ft 3 kts 269°
2026-04-30 09:31 68.50373 16.67784 93 ft 6 kts 244°
2026-04-30 09:31 68.50333 16.67706 94 ft 11 kts 205°
2026-04-30 09:31 68.50301 16.67682 95 ft 0 kts 180°
2026-04-30 09:32 68.50259 16.67692 94 ft 10 kts 176°
2026-04-30 09:32 68.50236 16.67695 93 ft 0 kts 178°
2026-04-30 09:33 68.50021 16.67693 90 ft 77 kts 177°
2026-04-30 09:33 68.49265 16.67851 323 ft 130 kts 183°
2026-04-30 09:33 68.48252 16.68183 736 ft 159 kts 183°
2026-04-30 09:34 68.47139 16.68040 1564 ft 158 kts 192°
2026-04-30 09:34 68.46046 16.67288 2317 ft 172 kts 203°
2026-04-30 09:34 68.44961 16.66152 2680 ft 164 kts 205°
2026-04-30 09:34 68.43901 16.64890 2946 ft 167 kts 209°
2026-04-30 09:35 68.42855 16.63397 2760 ft 172 kts 213°
2026-04-30 09:35 68.41767 16.62176 3102 ft 173 kts 194°
2026-04-30 09:35 68.40517 16.62051 3571 ft 188 kts 185°
2026-04-30 09:35 68.39209 16.62095 4143 ft 186 kts 186°
2026-04-30 09:36 68.37887 16.62309 4577 ft 195 kts 179°
2026-04-30 09:36 68.36545 16.63168 4771 ft 208 kts 170°
2026-04-30 09:36 68.35207 16.63771 5298 ft 194 kts 193°
2026-04-30 09:36 68.33868 16.63006 5550 ft 202 kts 204°
2026-04-30 09:37 68.32504 16.61941 5743 ft 198 kts 204°
2026-04-30 09:37 68.31232 16.61083 6067 ft 185 kts 204°
2026-04-30 09:37 68.29988 16.60352 6296 ft 180 kts 204°
2026-04-30 09:37 68.28756 16.59709 6813 ft 181 kts 202°
2026-04-30 09:38 68.27478 16.59065 7426 ft 194 kts 202°
2026-04-30 09:38 68.26099 16.58412 8116 ft 207 kts 200°
2026-04-30 09:38 68.24647 16.57782 8855 ft 215 kts 200°
2026-04-30 09:38 68.23140 16.57168 9554 ft 226 kts 199°
2026-04-30 09:39 68.21551 16.56544 10152 ft 234 kts 199°
2026-04-30 09:39 68.19912 16.55925 10594 ft 238 kts 198°
2026-04-30 09:39 68.18255 16.55310 11109 ft 243 kts 198°
2026-04-30 09:39 68.16577 16.54686 11650 ft 251 kts 197°
2026-04-30 09:40 68.14819 16.54033 12245 ft 257 kts 197°
2026-04-30 09:40 68.13037 16.53379 12835 ft 261 kts 197°
2026-04-30 09:40 68.11226 16.52717 13488 ft 264 kts 197°
2026-04-30 09:40 68.09404 16.52051 14112 ft 265 kts 197°
2026-04-30 09:41 68.07569 16.51378 14637 ft 267 kts 197°
2026-04-30 09:41 68.05729 16.50707 15099 ft 268 kts 197°
2026-04-30 09:41 68.03867 16.50021 15639 ft 269 kts 197°
2026-04-30 09:41 68.02009 16.49338 16120 ft 271 kts 197°
2026-04-30 09:42 68.00133 16.48649 16684 ft 273 kts 197°
2026-04-30 09:42 67.98249 16.47958 17242 ft 277 kts 198°
2026-04-30 09:42 67.96323 16.47249 17708 ft 281 kts 198°
2026-04-30 09:42 67.94392 16.46543 18186 ft 284 kts 198°
2026-04-30 09:43 67.92427 16.45830 18689 ft 286 kts 198°
2026-04-30 09:43 67.90446 16.45111 19121 ft 288 kts 198°
2026-04-30 09:43 67.88452 16.44388 19567 ft 289 kts 198°
2026-04-30 09:43 67.86458 16.43645 19990 ft 289 kts 199°
2026-04-30 09:44 67.84478 16.42834 20412 ft 289 kts 200°
2026-04-30 09:44 67.82482 16.41999 20844 ft 290 kts 200°
2026-04-30 09:44 67.80491 16.41168 21277 ft 290 kts 200°
2026-04-30 09:44 67.78491 16.40332 21666 ft 292 kts 200°
2026-04-30 09:45 67.76467 16.39488 22040 ft 294 kts 200°
2026-04-30 09:45 67.74448 16.38651 22431 ft 296 kts 200°
2026-04-30 09:45 67.72435 16.37818 22779 ft 297 kts 201°
2026-04-30 09:45 67.70367 16.36964 23124 ft 297 kts 201°
2026-04-30 09:46 67.68317 16.36120 23499 ft 298 kts 200°
2026-04-30 09:46 67.66276 16.35280 23845 ft 298 kts 200°
2026-04-30 09:46 67.64218 16.34432 24111 ft 302 kts 201°
2026-04-30 09:46 67.62137 16.33563 24154 ft 312 kts 200°
2026-04-30 09:47 67.59987 16.32675 24183 ft 321 kts 200°
2026-04-30 09:47 67.57737 16.31754 24188 ft 330 kts 199°
2026-04-30 09:47 67.55444 16.30822 24181 ft 337 kts 199°
2026-04-30 09:47 67.53111 16.29877 24181 ft 342 kts 199°
2026-04-30 09:48 67.50735 16.28915 24191 ft 347 kts 199°
2026-04-30 09:48 67.48341 16.27948 24193 ft 351 kts 199°
2026-04-30 09:48 67.45921 16.26971 24192 ft 354 kts 199°
2026-04-30 09:48 67.43468 16.25981 24187 ft 357 kts 199°
2026-04-30 09:49 67.41021 16.24996 24190 ft 358 kts 199°
2026-04-30 09:49 67.38540 16.23999 24189 ft 359 kts 198°
2026-04-30 09:49 67.36075 16.23010 24168 ft 360 kts 198°
2026-04-30 09:49 67.33590 16.22016 24190 ft 360 kts 198°
2026-04-30 09:50 67.31116 16.21027 24204 ft 360 kts 198°
2026-04-30 09:50 67.28656 16.20044 24190 ft 361 kts 198°
2026-04-30 09:50 67.26166 16.19053 24196 ft 360 kts 198°
2026-04-30 09:50 67.23692 16.18070 24197 ft 360 kts 198°
2026-04-30 09:51 67.21213 16.17086 24197 ft 360 kts 198°
2026-04-30 09:51 67.18722 16.16099 24200 ft 361 kts 198°
2026-04-30 09:51 67.16240 16.15118 24187 ft 361 kts 198°
2026-04-30 09:51 67.13766 16.14144 24206 ft 361 kts 198°
2026-04-30 09:52 67.11282 16.13166 24209 ft 362 kts 198°
2026-04-30 09:52 67.08802 16.12191 24188 ft 363 kts 198°
2026-04-30 09:52 67.06296 16.11210 24187 ft 363 kts 198°
2026-04-30 09:52 67.03831 16.10247 24195 ft 363 kts 198°
2026-04-30 09:53 67.02142 16.09587 24190 ft 364 kts 198°
2026-04-30 09:53 66.99637 16.08612 24188 ft 364 kts 198°
2026-04-30 09:53 66.97146 16.07644 24192 ft 363 kts 198°
2026-04-30 09:53 66.94658 16.06679 24193 ft 363 kts 198°
2026-04-30 09:54 66.92159 16.05711 24189 ft 363 kts 198°
2026-04-30 09:54 66.89669 16.04749 24204 ft 363 kts 198°
2026-04-30 09:54 66.87173 16.03786 24189 ft 363 kts 198°
2026-04-30 09:54 66.84673 16.02824 24199 ft 363 kts 198°
2026-04-30 09:55 66.82185 16.01870 24207 ft 363 kts 198°
2026-04-30 09:55 66.79688 16.00913 24199 ft 362 kts 198°
2026-04-30 09:55 66.77211 15.99966 24205 ft 361 kts 198°
2026-04-30 09:55 66.74729 15.99018 24201 ft 362 kts 198°
2026-04-30 09:56 66.72229 15.98066 24176 ft 362 kts 197°
2026-04-30 09:56 66.69751 15.97125 24205 ft 360 kts 197°
2026-04-30 09:56 66.67349 15.96214 24211 ft 360 kts 197°
2026-04-30 09:56 66.64809 15.95252 24208 ft 361 kts 197°
2026-04-30 09:57 66.62332 15.94316 24209 ft 361 kts 197°
2026-04-30 09:57 66.59835 15.93374 24218 ft 361 kts 197°
2026-04-30 09:57 66.57361 15.92444 24217 ft 361 kts 197°
2026-04-30 09:57 66.54870 15.91509 24215 ft 361 kts 197°
2026-04-30 09:58 66.52393 15.90581 24235 ft 361 kts 197°
2026-04-30 09:58 66.49896 15.89646 24209 ft 362 kts 197°
2026-04-30 09:58 66.47442 15.88731 24229 ft 362 kts 197°
2026-04-30 09:58 66.44951 15.87804 24237 ft 362 kts 197°
2026-04-30 09:59 66.39954 15.85951 24151 ft 363 kts 197°
2026-04-30 09:59 66.34981 15.84130 24199 ft 360 kts 197°
2026-04-30 10:00 66.30033 15.82160 24155 ft 360 kts 198°
2026-04-30 10:00 66.27563 15.81067 24125 ft 360 kts 199°
2026-04-30 10:01 66.22659 15.78679 24161 ft 357 kts 200°
2026-04-30 10:01 66.20235 15.77385 24182 ft 355 kts 202°
2026-04-30 10:01 66.17841 15.75899 24144 ft 355 kts 204°
2026-04-30 10:02 66.13153 15.72254 24088 ft 351 kts 208°
2026-04-30 10:02 66.10871 15.70143 24128 ft 348 kts 211°
2026-04-30 10:02 66.08637 15.67900 24141 ft 346 kts 212°
2026-04-30 10:02 66.06418 15.65588 24122 ft 347 kts 212°
2026-04-30 10:03 66.04187 15.63276 24066 ft 349 kts 211°
2026-04-30 10:03 66.01940 15.60970 24046 ft 350 kts 211°
2026-04-30 10:03 65.99688 15.58704 24069 ft 350 kts 211°
2026-04-30 10:03 65.97421 15.56536 24105 ft 350 kts 210°
2026-04-30 10:04 65.95131 15.54470 24113 ft 351 kts 208°
2026-04-30 10:04 65.92825 15.52494 24110 ft 352 kts 207°
2026-04-30 10:04 65.90499 15.50601 24085 ft 353 kts 206°
2026-04-30 10:04 65.88148 15.48787 24063 ft 355 kts 206°